Location: *
(48.8381°S, 177.4751°W)
Time: 05:51:06
(UTC+00:00)

Daily predictions for brighter satellites

Satellite Brightness Start Highest point End
(mag) Time Altitude Azimuth Time Altitude Azimuth Time Altitude Azimuth
COSMOS 2455 3.1 06:36:24 10° SW 06:42:28 76° WNW 06:48:30 10° NNE
Cosmos 2266 Rocket 4.3 06:37:40 10° SSW 06:43:48 75° W 06:49:55 10° N
Cosmos 1975 3.0 06:41:57 10° S 06:45:36 44° ESE 06:49:11 10° NNE
Cosmos 44 3.3 06:43:41 10° NW 06:48:22 77° SW 06:52:50 10° SE
NOSS 3-1 (A) 3.5 06:44:17 10° SW 06:51:10 83° NW 06:56:28 10° NE
Cosmos 1452 Rocket 3.6 06:48:56 10° N 06:54:04 56° ENE 06:59:14 10° SSE
Meteor 1-19 Rocket 4.4 06:51:43 10° N 06:57:27 60° E 07:03:24 10° SSE
CZ-4 R/B 4.3 06:55:04 10° SSE 06:59:08 75° ENE 07:03:09 10° N
SAR-Lupe-4 3.9 06:56:10 10° SSE 06:59:39 42° E 07:03:05 10° N
SJ-6F 4.3 06:55:45 10° SSE 06:59:48 80° ENE 07:03:47 10° N
ATLAS 5 CENTAUR R/B 3.4 06:55:33 10° SW 07:01:06 30° SSE 07:05:46 10° E
Cosmos 1536 4.1 06:57:39 10° SSW 07:01:13 41° W 07:04:45 10° NNW
Meteor 1-14 Rocket 4.4 06:59:18 10° SSW 07:04:56 79° W 07:10:31 10° N
Cosmos 1110 Rocket 4.2 07:02:07 10° NNW 07:07:27 83° WSW 07:12:48 10° SSE
Cosmos 2221 2.5 07:04:18 10° N 07:08:29 88° W 07:12:47 10° S
Cosmos 1553 Rocket 4.4 07:05:42 10° NNE 07:11:44 45° E 07:17:52 10° SSE
Cosmos 1818 4.2 07:08:09 10° SSW 07:13:18 41° SE 07:17:27 15° ENE
Meteor 1-27 Rocket 4.1 07:07:47 10° NNE 07:13:20 46° E 07:18:49 10° SSE
Cosmos 1655 Rocket 4.1 07:07:38 10° S 07:14:00 85° W 07:20:20 10° N
Thor Agena Rocket 4.3 07:11:57 10° S 07:17:01 57° WSW 07:22:04 10° NNW
ARIANE 5 R/B 3.0 07:11:56 10° S 07:17:08 66° WSW 07:22:12 10° NNW
Sich 1 4.5 07:14:54 10° SSE 07:17:57 19° ESE 07:19:25 16° E
Cosmos 1766 Rocket 3.9 07:14:53 10° S 07:19:07 45° ESE 07:23:17 10° NNE
SL-08 R/B 3.6 07:16:48 10° N 07:21:44 76° WNW 07:26:45 10° SSW
Spot 4 Rocket 4.1 07:21:43 10° SSE 07:26:51 58° ENE 07:31:55 10° N
CARTOSAT-1 3.4 07:23:03 10° SSE 07:27:21 69° E 07:31:35 10° N
ATLAS 2AS CENTAUR R/B 3.2 07:21:50 10° N 07:28:14 38° ENE 07:34:50 10° SE
CZ-2D R/B 3.3 07:24:55 10° SSE 07:28:56 73° ENE 07:33:00 10° N
YAOGAN 11 4.2 07:25:01 10° NNE 07:29:17 79° WNW 07:33:40 10° SSW
Cosmos 1833 Rocket 2.8 07:26:34 10° NNW 07:32:14 86° WSW 07:37:59 10° SSE
Meteor 2-10 Rocket 4.4 07:27:33 10° S 07:32:42 35° ESE 07:36:05 19° ENE
Meteor 1-11 Rocket 3.9 07:27:31 10° SSW 07:33:14 77° W 07:38:48 10° N
USA 229 DEB 4.1 07:28:35 10° SW 07:35:08 45° SE 07:39:07 20° E
USA 229 4.1 07:28:40 10° SW 07:35:12 44° SSE 07:39:10 20° E
Cosmos 1745 Rocket 4.3 07:30:43 10° S 07:36:40 45° ESE 07:41:14 17° NE
Cosmos 2219 Rocket 4.4 07:36:28 10° S 07:38:09 11° SSE 07:39:50 10° SE
Resurs 01 Rocket 1.6 07:34:44 10° SSE 07:39:13 67° E 07:43:38 10° N
Okean 3 Rocket 4.4 07:38:31 10° S 07:42:43 34° ESE 07:44:20 26° ENE
Cosmos 1992 Rocket 4.1 07:39:39 10° N 07:44:41 51° ENE 07:49:47 10° SSE
SJ-7 4.2 07:41:11 10° SSE 07:44:58 83° WSW 07:48:41 10° NNW
Cosmos 2333 Rocket 3.8 07:41:02 10° S 07:45:24 21° SE 07:48:04 16° ESE
PSLV R/B 3.4 07:44:24 10° SSE 07:48:38 85° ENE 07:52:46 10° NNW
Cosmos 2082 Rocket 2.8 07:45:39 10° NNE 07:50:35 32° ENE 07:55:33 10° SE
NOAA 6 4.0 07:46:24 10° SSE 07:51:40 85° ENE 07:56:52 10° NNW
YAOGAN 1 3.6 07:47:34 10° S 07:51:45 48° WSW 07:55:54 10° NW
Cosmos 1697 Rocket 3.5 07:51:39 10° SW 07:57:08 50° WNW 08:02:34 10° N
Cosmos 1386 Rocket 4.5 07:51:14 10° S 07:57:41 79° E 08:03:49 12° NNE
SJ-6B 2.3 07:54:17 10° SSE 07:57:49 72° ENE 08:00:40 15° N
Helios 1A 4.1 07:59:05 25° ESE 07:59:07 25° ESE 08:02:27 10° S
Cosmos 1980 Rocket 2.1 07:54:25 10° SSW 08:00:09 85° ESE 08:03:32 25° NNE
Tiangong 0.5 07:59:41 10° NW 08:00:53 12° NNW 08:01:12 12° NNW
Cosmos 1842 Rocket 3.5 07:58:37 13° N 08:02:26 63° E 08:06:52 10° SSE
S3M 4.1 07:57:46 12° NNE 08:03:22 51° E 08:09:20 10° SSE
SL-16 R/B 3.3 08:00:41 10° SSW 08:05:39 29° SE 08:07:26 24° ESE
CZ-4 R/B 2.9 08:05:11 10° SSE 08:06:38 19° SE 08:06:38 19° SE
Cosmos 1238 Rocket 3.4 08:06:15 10° NNW 08:09:34 51° WSW 08:13:23 10° S
Cosmos 1151 Rocket 4.4 08:11:57 24° ESE 08:11:57 24° ESE 08:14:19 10° SSE
Cosmos 1066 Rocket 4.1 08:05:51 10° N 08:11:14 65° E 08:16:48 10° SSE
Cosmos 1271 Rocket 3.4 08:08:16 10° NNW 08:11:41 48° WSW 08:15:08 10° S
SPOT 5 3.1 08:07:48 10° SSE 08:12:32 48° E 08:14:02 37° NE
Lacrosse 5 rocket 3.0 08:10:02 10° WSW 08:13:14 26° SSW 08:15:28 15° SE
Cosmos 1408 Rocket 3.9 08:10:46 10° S 08:14:56 42° ESE 08:14:59 42° ESE
Cosmos 2322 Rocket 3.7 08:11:36 10° S 08:16:06 23° SE 08:17:42 20° ESE
USA 215 3.6 08:12:46 26° E 08:16:30 57° SSE 08:22:55 10° WSW
Gblst 52 Del rocket 4.1 08:11:15 10° WNW 08:16:56 89° NNE 08:20:00 28° ESE
Meteor 2-4 Rocket 3.9 08:19:13 10° NNW 08:24:39 72° WSW 08:30:20 10° S
Cosmos 2369 3.7 08:20:36 10° SSW 08:26:25 76° ESE 08:28:13 45° NE
Cosmos 2360 Rocket 3.6 08:23:31 10° S 08:28:08 24° SE 08:29:17 23° ESE
Cosmos 2237 4.2 08:23:51 10° SSW 08:29:38 67° ESE 08:31:08 48° ENE
ATLAS 3B R/B 2.6 08:25:26 10° SW 08:31:41 67° SE 08:33:44 44° ENE
ERS-1 Rocket 4.1 08:27:59 10° SSE 08:31:06 29° ESE 08:31:06 29° ESE
CZ-4B R/B 4.2 08:28:14 10° SSE 08:31:37 28° ESE 08:31:37 28° ESE
In-Cosmos 22 4.2 08:32:48 48° NE 08:34:01 59° E 08:39:40 10° SSE
Cosmos 1743 Rocket 4.4 08:30:24 10° S 08:33:46 36° SE 08:33:46 36° SE
Cosmos 1500 Rocket 3.6 08:30:07 10° S 08:34:29 60° ESE 08:34:29 60° ESE
CSL-04 Rocket 3.5 08:30:39 10° SSE 08:36:02 68° ENE 08:37:37 45° NNE
CZ-4B DEB 4.4 08:30:46 10° SSE 08:36:02 48° E 08:36:02 48° E
IRIDIUM 104 4.4 08:35:17 10° S 08:40:37 78° W 08:42:46 37° N
CZ-4B R/B 3.9 08:37:36 10° SSE 08:41:16 71° S 08:41:16 71° S
Cosmos 1486 Rocket 3.9 08:38:06 10° SSW 08:43:32 81° ESE 08:44:19 64° NE
ATLAS 5 CENTAUR R/B 1.8 08:38:16 10° SW 08:44:18 89° WNW 08:44:59 68° NE
Cosmos 1805 Rocket 3.5 08:39:55 10° S 08:44:07 74° SE 08:44:07 74° SE
Cosmos 1758 4.2 08:45:27 10° S 08:47:54 39° S 08:47:54 39° S
Sich 1 3.7 08:51:16 10° SSW 08:55:22 48° W 08:55:51 45° WNW
Meteor 1-18 Rocket 4.4 08:52:03 17° NNW 08:56:29 70° WSW 09:02:16 10° S
Cosmos 1818 4.3 08:51:47 10° SW 08:56:54 44° WNW 08:58:04 38° NNW
COSMOS 2406 4.3 09:00:51 31° SE 09:00:51 31° SE 09:03:55 10° SE
Cosmos 990 Rocket 4.3 08:58:29 10° SSW 09:03:16 54° SE 09:03:16 54° SE
Terra 2.9 09:00:38 10° SSE 09:03:24 33° SE 09:03:24 33° SE
Cosmos 1709 Rocket 4.5 09:00:20 10° SSW 09:06:30 58° W 09:09:16 33° NNW
Resurs 01 Rocket 4.5 09:12:09 10° SSW 09:15:05 17° WSW 09:18:00 10° W
Cosmos 2278 3.8 09:10:38 10° SSW 09:16:03 64° SE 09:16:03 64° SE
Cosmos 2074 Rocket 4.0 09:11:06 10° S 09:17:13 63° ESE 09:17:13 63° ESE
Cosmos 1295 Rocket 4.4 09:11:26 10° S 09:17:40 70° ESE 09:17:40 70° ESE
ATLAS 2AS CENTAUR R/B 3.2 09:11:45 10° NW 09:18:52 64° SW 09:26:14 10° SE
Cosmos 839 Rocket 3.9 09:12:51 10° NNW 09:19:52 85° NE 09:26:06 10° SE
Cosmos 2219 Rocket 3.3 09:18:44 10° SSW 09:23:32 34° SE 09:23:32 34° SE
MOS 1 4.2 09:19:06 10° SSE 09:24:38 82° SSE 09:24:38 82° SSE
USA 229 DEB 3.8 09:19:50 10° SW 09:26:09 52° WNW 09:26:31 51° NW
USA 229 3.8 09:19:54 10° SW 09:26:13 53° WNW 09:26:33 52° NW
Cosmos 2333 Rocket 2.3 09:24:45 10° SSW 09:30:04 73° S 09:30:04 73° S
Cosmos 2154 Rocket 4.1 09:27:30 10° S 09:33:16 67° SE 09:33:16 67° SE
Cosmos 2082 Rocket 3.0 09:28:56 10° NW 09:34:26 49° SW 09:39:59 10° SSE
Cosmos 1354 Rocket 4.5 09:31:49 10° SSW 09:36:05 58° SW 09:36:05 58° SW
CZ-4 R/B 3.6 09:39:25 10° S 09:41:36 22° SW 09:41:36 22° SW
Cosmos 1980 Rocket 4.4 09:39:50 10° WSW 09:43:22 17° W 09:45:17 15° WNW
SL-16 R/B 2.7 09:44:29 10° SSW 09:49:15 55° WSW 09:49:15 55° WSW
Lacrosse 5 rocket 4.0 09:47:45 10° SW 09:48:48 16° SW 09:48:48 16° SW
USA 215 3.4 10:00:07 65° WNW 10:00:07 65° WNW 10:06:01 10° WSW
Cosmos 2184 Rocket 4.2 09:53:21 10° SSW 09:58:57 66° SW 09:58:57 66° SW
Cosmos 2322 Rocket 2.8 09:55:06 10° SSW 09:59:28 53° SSW 09:59:28 53° SSW
Cosmos 2237 Rocket 4.3 10:02:37 10° S 10:06:09 16° SE 10:06:28 16° SE
Aureole 1 Rocket 4.3 09:59:11 10° SSW 10:06:10 80° SW 10:06:10 80° SW
ERS-1 Rocket 4.4 10:06:43 10° S 10:10:56 35° SW 10:10:56 35° SW
Cosmos 2360 Rocket 3.1 10:07:03 10° SSW 10:11:01 46° SW 10:11:01 46° SW
CZ-4B R/B 4.2 10:08:40 10° S 10:13:28 42° SW 10:13:28 42° SW
Okean O Rocket 4.0 10:14:46 10° S 10:16:18 20° S 10:16:18 20° S
ATLAS 3B R/B 3.9 10:16:30 10° SW 10:20:57 29° W 10:20:57 29° W
ATLAS 5 CENTAUR R/B 4.4 10:22:16 10° WSW 10:24:12 15° W 10:24:12 15° W
CZ-4C R/B 3.5 10:38:52 49° SE 10:38:52 49° SE 10:43:38 10° SE
Terra 4.1 10:38:58 10° SSW 10:42:01 20° SW 10:42:01 20° SW
ACS3 Solar Sail 3.9 10:46:51 16° SE 10:46:51 16° SE 10:50:10 10° SSE
NOSS 3-4 (A) 4.4 10:53:11 10° SW 10:59:23 52° S 10:59:23 52° S
NOSS 3-4 (C) 4.4 10:53:34 10° SW 10:59:45 51° S 10:59:45 51° S
Cosmos 2219 Rocket 4.0 11:02:35 10° SW 11:05:13 26° SW 11:05:13 26° SW
ATLAS 2AS CENTAUR R/B 4.5 11:04:58 10° WSW 11:11:13 29° SSW 11:17:35 10° SE
COSMOS 2428 4.4 11:12:26 10° SSW 11:15:13 30° SSW 11:15:13 30° SSW
Cosmos 2237 Rocket 4.1 11:45:45 10° SSW 11:48:13 26° SSW 11:48:13 26° SSW
